Location: Bakhuizen
(52.8696°N, 5.4575°E)
Time: 16:09:40
(UTC+00:00)

Cosmos 773 Rocket - Pass Details

Date: 03 October 2021
Orbit: 745 x 777 km, 74.1° (Epoch: 19 October)

Event Time Altitude Azimuth Distance (km) Brightness Sun altitude
Rises 18:33:43 0° 322° (NW) 3,256 8.1 -13.4°
Reaches altitude 10° 18:37:04 10° 300° (WNW) 2,329 7.7 -13.9°
Maximum altitude 18:39:58 15° 267° (W) 1,997 7.3 -14.3°
Drops below altitude 10° 18:42:52 10° 233° (SW) 2,325 7.1 -14.8°
Sets 18:46:14 0° 211° (SSW) 3,248 7.5 -15.3°
